sat.trackr.live / text

‹ back to catalog

BEIDOU-3 M1 (C19)

NORAD 43001 · 2017-069A

PAYLOAD ACTIVE UNKNOWN

§ Identity

Operator
Country
PRC
Launch date
2017-11-05
Launch site
XICLF
Launch vehicle
Mass (kg)
RCS (m²)

Purposes: nav

External: N2YO · Heavens-Above · Gunter

§ Orbital elements

Epoch: 2026-09-12T02:52:30.936000Z

Period
773.23 min
Inclination
56.7721°
Eccentricity
0.0007278
Mean motion
1.86230993 rev/d
Perigee alt
21,507.7 km
Apogee alt
21,548.4 km
Semi-major
27,906.2 km
B*
0.0000e+0
RAAN
60.2255°
Arg perigee
323.5919°
Mean anomaly
36.3763°
Rev number
6,022

§ Raw data

BEIDOU-3 M1 (C19)1 43001U 17069A   26255.11980250 -.00000040  00000+0  00000+0 0  99902 43001  56.7721  60.2255 0007278 323.5919  36.3763  1.86230993 60223

JSON: /api/v1/satellites/43001 · /tle

For live sub-satellite position, see the globe view (requires WebGL).

§ Visibility from observer

Set your observer location to see the next 7 days of passes ≥ 10°. The values pass through the URL so the page stays shareable.

No JS? Fill the form by hand. The geolocation button needs JavaScript.